Вернуться в каталог

FENGYUN 1C DEB

АктивенPO
NORAD 31666·DEBRIS·🇨🇳 China

Запущен May 10, 1999 с Taiyuan Satellite Launch Center

Loading…

Ближайшие Пролёты (ближайшие 24 часа)

TLE

СвежийSource: Space-Track

Эпоха: Sep 14, 2026, 10:43 UTC

1 31666U 99025CBY 26257.44698735  .00025090  00000-0  18804-2 0  9994
2 31666  98.6655  79.1749 0014722 337.4016  22.6556 15.02591363 13544

Отслеживайте FENGYUN 1C DEB в реальном времени с AllMySat

Download on the App Store